Weather History for Mount Pleasant, SC

Change the Weather History Date:

Tuesday, November 6, 2012

  Actual Average (KCHS) Record (KCHS)
Temperature  
Mean Temperature 48 °F 61 °F  
Max Temperature 55 °F 72 °F 87 °F (2003)
Min Temperature 42 °F 50 °F 28 °F (1976)
Degree Days  
Heating Degree Days 16 5  
Month to date heating degree days 29  
Since 1 July heating degree days 98  
Cooling Degree Days 0 1  
Month to date cooling degree days 11  
Year to date cooling degree days 2275  
Moisture  
Dew Point 43 °F    
Average Humidity 82    
Maximum Humidity 93    
Minimum Humidity 63    
Precipitation  
Precipitation 0.01 in 0.09 in 1.06 in (1993)
Month to date precipitation 0.50  
Year to date precipitation 45.99  
Sea Level Pressure  
Sea Level Pressure 29.96 in    
Wind  
Wind Speed 5 mph (North)    
Max Wind Speed 12 mph    
Max Gust Speed 16 mph    
Visibility 9 miles    
Events Rain    
T = Trace of Precipitation, MM = Missing Value Source: NWS Daily Summary

Daily Weather History Graph

Daily Weather History Graph

Search for Another Location

Airport:

Trip Planner

Search our weather history database for the weather conditions in past years. The results will help you decide how hot, cold, wet, or windy it might be!

Date:

Astronomy

Nov. 06, 2012 Rise Set
Actual Time 6:41 AM EST 5:23 PM EST
Civil Twilight 6:16 AM EST 5:49 PM EST
Nautical Twilight 5:46 AM EST 6:18 PM EST
Astronomical Twilight 5:17 AM EST 6:47 PM EST
Moon 11:56 PM EST (11/6) 12:35 PM EST (11/6)
Length of Visible Light 11h 33m
Length of Day
10h 41m
Waning Gibbous, 53% of the Moon is Illuminated
Nov 6
Waning Gibbous
Nov 6
Last Quarter
Nov 13
New
Nov 20
First Quarter
Nov 28
Full

Hourly Weather History & Observations

Time (EST) Temp. Windchill Dew Point Humidity Pressure Visibility Wind Dir Wind Speed Gust Speed Precip Events Conditions
12:15 AM 50.0 °F - 44.6 °F 82% 30.04 in 10.0 mi NNE 3.5 mph - N/A   Clear
12:35 AM 48.2 °F - 44.6 °F 87% 30.03 in 10.0 mi NNE 5.8 mph - N/A   Clear
12:55 AM 48.2 °F - 44.6 °F 87% 30.02 in 10.0 mi NNE 4.6 mph - N/A   Clear
1:15 AM 48.2 °F - 44.6 °F 87% 30.03 in 10.0 mi NNE 3.5 mph - N/A   Clear
1:35 AM 48.2 °F - 44.6 °F 87% 30.02 in 10.0 mi NNE 4.6 mph - N/A   Clear
1:55 AM 48.2 °F - 44.6 °F 87% 30.01 in 10.0 mi NNE 3.5 mph - N/A   Clear
2:15 AM 48.2 °F - 44.6 °F 87% 30.01 in 10.0 mi NNE 6.9 mph - N/A   Clear
2:35 AM 48.2 °F - 44.6 °F 87% 30.01 in 10.0 mi NNE 5.8 mph - N/A   Clear
2:55 AM 48.2 °F - 44.6 °F 87% 30.01 in 10.0 mi NNE 5.8 mph - N/A   Clear
3:35 AM 50.0 °F - 44.6 °F 82% 30.00 in 10.0 mi NNE 5.8 mph - N/A   Clear
3:55 AM 50.0 °F - 44.6 °F 82% 30.00 in 10.0 mi NNE 5.8 mph - N/A   Partly Cloudy
4:35 AM 50.0 °F - 44.6 °F 82% 29.98 in 10.0 mi NNE 4.6 mph - N/A   Clear
4:55 AM 50.0 °F - 44.6 °F 82% 29.99 in 10.0 mi NE 3.5 mph - N/A   Mostly Cloudy
5:15 AM 50.0 °F - 46.4 °F 87% 29.99 in 10.0 mi NNE 5.8 mph - N/A   Overcast
5:35 AM 50.0 °F - 46.4 °F 87% 30.00 in 10.0 mi North 4.6 mph - N/A   Overcast
6:15 AM 48.2 °F - 44.6 °F 87% 30.01 in 10.0 mi North 4.6 mph - N/A   Clear
6:35 AM 48.2 °F - 44.6 °F 87% 30.00 in 8.0 mi NNE 5.8 mph - N/A Rain Light Rain
7:15 AM 48.2 °F - 46.4 °F 93% 30.01 in 7.0 mi North 6.9 mph - N/A   Overcast
7:35 AM 48.2 °F - 44.6 °F 87% 30.01 in 7.0 mi North 5.8 mph - N/A Rain Light Rain
7:55 AM 46.4 °F 43.5 °F 44.6 °F 93% 30.03 in 4.0 mi North 5.8 mph - N/A Rain Light Rain
8:15 AM 46.4 °F 43.5 °F 44.6 °F 93% 30.02 in 2.5 mi North 5.8 mph - 0.01 in Rain Light Rain
8:35 AM 46.4 °F 42.9 °F 44.6 °F 93% 30.01 in 4.0 mi North 6.9 mph - 0.01 in Rain Light Rain
9:15 AM 44.6 °F 40.7 °F 42.8 °F 93% 29.98 in 7.0 mi NNE 6.9 mph - N/A   Clear
9:35 AM 44.6 °F 40.7 °F 42.8 °F 93% 29.97 in 7.0 mi North 6.9 mph - N/A Rain Light Rain
9:55 AM 44.6 °F 40.2 °F 42.8 °F 93% 29.99 in 7.0 mi North 8.1 mph - N/A Rain Light Rain
10:15 AM 44.6 °F 40.7 °F 42.8 °F 93% 29.98 in 8.0 mi North 6.9 mph - N/A Rain Light Rain
10:35 AM 44.6 °F 40.7 °F 42.8 °F 93% 30.00 in 8.0 mi North 6.9 mph - N/A   Mostly Cloudy
10:55 AM 46.4 °F 43.5 °F 42.8 °F 87% 29.98 in 9.0 mi NNE 5.8 mph - N/A   Overcast
11:15 AM 46.4 °F 43.5 °F 42.8 °F 87% 29.98 in 9.0 mi North 5.8 mph - N/A   Overcast
11:35 AM 48.2 °F - 42.8 °F 82% 29.97 in 10.0 mi North 6.9 mph - N/A   Mostly Cloudy
11:55 AM 50.0 °F - 42.8 °F 76% 29.95 in 10.0 mi North 9.2 mph - N/A   Partly Cloudy
12:15 PM 50.0 °F - 42.8 °F 76% 29.94 in 10.0 mi NNE 9.2 mph 16.1 mph N/A   Partly Cloudy
12:35 PM 53.6 °F - 42.8 °F 67% 29.92 in 10.0 mi NNE 9.2 mph - N/A   Scattered Clouds
12:55 PM 53.6 °F - 42.8 °F 67% 29.91 in 10.0 mi North 10.4 mph - N/A   Scattered Clouds
1:15 PM 55.4 °F - 42.8 °F 63% 29.90 in 10.0 mi North 6.9 mph - N/A   Mostly Cloudy
1:35 PM 55.4 °F - 44.6 °F 67% 29.89 in 10.0 mi NNW 11.5 mph - N/A   Mostly Cloudy
2:15 PM 53.6 °F - 42.8 °F 67% 29.89 in 10.0 mi North 8.1 mph - N/A   Mostly Cloudy
2:35 PM 53.6 °F - 42.8 °F 67% 29.88 in 10.0 mi North 8.1 mph - N/A   Overcast
2:55 PM 53.6 °F - 42.8 °F 67% 29.90 in 10.0 mi North 8.1 mph - N/A   Mostly Cloudy
3:15 PM 51.8 °F - 42.8 °F 71% 29.90 in 10.0 mi North 5.8 mph - N/A   Overcast
3:35 PM 53.6 °F - 42.8 °F 67% 29.89 in 10.0 mi North 11.5 mph - N/A   Mostly Cloudy
3:55 PM 53.6 °F - 42.8 °F 67% 29.90 in 10.0 mi North 9.2 mph - N/A   Mostly Cloudy
4:15 PM 55.4 °F - 42.8 °F 63% 29.90 in 10.0 mi North 5.8 mph - N/A   Mostly Cloudy
4:35 PM 53.6 °F - 42.8 °F 67% 29.91 in 10.0 mi North 5.8 mph - N/A   Mostly Cloudy
5:15 PM 51.8 °F - 42.8 °F 71% 29.91 in 10.0 mi North 4.6 mph - N/A   Scattered Clouds
5:35 PM 51.8 °F - 42.8 °F 71% 29.92 in 10.0 mi North 4.6 mph - N/A   Mostly Cloudy
5:55 PM 50.0 °F - 42.8 °F 76% 29.91 in 10.0 mi North 6.9 mph - N/A   Mostly Cloudy
6:15 PM 48.2 °F - 42.8 °F 82% 29.91 in 10.0 mi North 4.6 mph - N/A   Partly Cloudy
6:35 PM 48.2 °F - 42.8 °F 82% 29.91 in 10.0 mi North 3.5 mph - N/A   Clear
6:55 PM 46.4 °F - 42.8 °F 87% 29.91 in 10.0 mi Calm Calm - N/A   Clear
7:15 PM 46.4 °F 45.2 °F 42.8 °F 87% 29.93 in 10.0 mi NNW 3.5 mph - N/A   Clear
7:35 PM 46.4 °F - 42.8 °F 87% 29.93 in 10.0 mi Calm Calm - N/A   Clear
7:55 PM 46.4 °F 43.5 °F 42.8 °F 87% 29.93 in 10.0 mi North 5.8 mph - N/A   Clear
8:15 PM 46.4 °F 43.5 °F 42.8 °F 87% 29.93 in 10.0 mi North 5.8 mph - N/A   Clear
8:35 PM 46.4 °F 43.5 °F 42.8 °F 87% 29.93 in 10.0 mi North 5.8 mph - N/A   Clear
8:55 PM 46.4 °F 42.9 °F 42.8 °F 87% 29.93 in 10.0 mi North 6.9 mph - N/A   Clear
9:15 PM 46.4 °F 44.3 °F 41.0 °F 81% 29.93 in 10.0 mi NNE 4.6 mph - N/A   Clear
9:35 PM 44.6 °F 42.2 °F 41.0 °F 87% 29.92 in 10.0 mi North 4.6 mph - N/A   Clear
9:55 PM 44.6 °F 42.2 °F 41.0 °F 87% 29.92 in 10.0 mi North 4.6 mph - N/A   Clear
10:15 PM 44.6 °F 42.2 °F 41.0 °F 87% 29.92 in 10.0 mi North 4.6 mph - N/A   Clear
10:35 PM 42.8 °F - 39.2 °F 87% 29.93 in 10.0 mi Calm Calm - N/A   Clear
10:55 PM 42.8 °F 41.1 °F 39.2 °F 87% 29.92 in 10.0 mi North 3.5 mph - N/A   Clear
11:15 PM 42.8 °F - 39.2 °F 87% 29.92 in 10.0 mi Calm Calm - N/A   Clear
11:35 PM 42.8 °F - 39.2 °F 87% 29.92 in 9.0 mi Calm Calm - N/A   Clear
11:55 PM 42.8 °F - 39.2 °F 87% 29.92 in 9.0 mi Calm Calm - N/A   Clear